QPF
0.00 0.00 0.00 0.00 0.00 0.00 0.00 0.00 0.00 0.00 0.00 0.00 0.00 0.00 0.00 0.00 0.00 0.00 0.00 0.00 0.00 0.00 0.00 0.00 0.00 0.00 0.00 0.00 0.00 0.00 0.00 0.00 0.00 0.00 0.00 0.00 0.00 0.00 0.00 0.01 0.07 0.05 0.02
0.00 0.00 0.00 0.00 0.00 0.00 0.00 0.00 0.00 0.00 0.00 0.00 0.00 0.00 0.00 0.00 0.00 0.00 0.00 0.00 0.00 0.00 0.00 0.00 0.00 0.00 0.00 0.00 0.00 0.00 0.00 0.00 0.00 0.00 0.00 0.00 0.00 0.00 0.01 0.03 0.10 0.04 0.01
0.00 0.00 0.00 0.00 0.00 0.00 0.00 0.00 0.00 0.00 0.00 0.00 0.00 0.00 0.00 0.00 0.00 0.00 0.00 0.00 0.00 0.00 0.00 0.00 0.00 0.00 0.00 0.00 0.00 0.00 0.00 0.00 0.00 0.00 0.05 0.05 0.00 0.00 0.01 0.04 0.05 0.02 0.01
0.00 0.00 0.00 0.00 0.00 0.00 0.00 0.00 0.00 0.00 0.01 0.01 0.01 0.00 0.00 0.00 0.00 0.00 0.00 0.00 0.00 0.00 0.00 0.00 0.00 0.00 0.00 0.00 0.00 0.00 0.00 0.00 0.00 0.01 0.12 0.07 0.00 0.00 0.00 0.01 0.01 0.01 0.01
0.00 0.00 0.00 0.00 0.00 0.00 0.00 0.00 0.00 0.00 0.01 0.01 0.01 0.01 0.01 0.01 0.00 0.00 0.00 0.00 0.01 0.01 0.00 0.00 0.00 0.00 0.00 0.00 0.00 0.00 0.00 0.00 0.00 0.02 0.06 0.04 0.03 0.01 0.00 0.01 0.01 0.01 0.01
0.00 0.00 0.00 0.00 0.00 0.00 0.00 0.00 0.00 0.00 0.00 0.01 0.01 0.01 0.01 0.01 0.01 0.00 0.00 0.00 0.01 0.00 0.00 0.00 0.00 0.00 0.00 0.00 0.00 0.00 0.00 0.00 0.00 0.02 0.03 0.03 0.05 0.01 0.00 0.00 0.01 0.02 0.02
0.00 0.00 0.00 0.00 0.00 0.00 0.00 0.00 0.00 0.00 0.00 0.00 0.00 0.01 0.01 0.01 0.01 0.01 0.00 0.01 0.01 0.00 0.00 0.00 0.00 0.00 0.00 0.00 0.00 0.00 0.00 0.00 0.00 0.01 0.03 0.05 0.06 0.01 0.00 0.00 0.00 0.01 0.02
0.00 0.00 0.00 0.00 0.00 0.00 0.00 0.00 0.00 0.00 0.00 0.00 0.00 0.00 0.00 0.01 0.01 0.00 0.01 0.01 0.00 0.00 0.00 0.00 0.00 0.00 0.00 0.00 0.00 0.00 0.00 0.00 0.00 0.00 0.01 0.03 0.03 0.00 0.00 0.01 0.01 0.00 0.01
0.00 0.00 0.00 0.00 0.00 0.00 0.00 0.00 0.00 0.00 0.00 0.00 0.00 0.00 0.00 0.00 0.00 0.00 0.00 0.00 0.00 0.00 0.00 0.00 0.00 0.00 0.00 0.00 0.00 0.00 0.00 0.00 0.00 0.00 0.01 0.01 0.00 0.00 0.00 0.01 0.01 0.02 0.01
0.00 0.00 0.00 0.00 0.00 0.00 0.00 0.00 0.00 0.00 0.00 0.00 0.00 0.00 0.00 0.00 0.00 0.00 0.00 0.00 0.00 0.00 0.00 0.00 0.00 0.00 0.00 0.00 0.00 0.00 0.00 0.00 0.00 0.00 0.00 0.00 0.00 0.00 0.01 0.02 0.03 0.04 0.03
0.00 0.00 0.00 0.00 0.00 0.00 0.00 0.00 0.00 0.00 0.00 0.00 0.00 0.00 0.00 0.00 0.00 0.00 0.00 0.00 0.00 0.00 0.00 0.00 0.00 0.01 0.01 0.00 0.00 0.00 0.00 0.00 0.00 0.00 0.00 0.00 0.00 0.00 0.00 0.01 0.02 0.05 0.05
0.00 0.00 0.00 0.00 0.00 0.00 0.00 0.00 0.00 0.00 0.00 0.00 0.00 0.01 0.00 0.00 0.00 0.00 0.00 0.01 0.00 0.01 0.00 0.00 0.01 0.01 0.01 0.01 0.05 0.06 0.01 0.00 0.00 0.00 0.00 0.01 0.01 0.00 0.00 0.00 0.01 0.02 0.03
0.00 0.00 0.00 0.00 0.00 0.00 0.00 0.00 0.00 0.00 0.03 0.03 0.02 0.03 0.05 0.03 0.01 0.00 0.01 0.02 0.02 0.03 0.02 0.02 0.02 0.01 0.02 0.05 0.12 0.12 0.03 0.02 0.01 0.01 0.03 0.04 0.04 0.03 0.01 0.01 0.01 0.01 0.02
0.00 0.00 0.00 0.00 0.01 0.01 0.02 0.03 0.01 0.01 0.04 0.05 0.08 0.09 0.09 0.10 0.06 0.03 0.02 0.03 0.07 0.11 0.12 0.08 0.08 0.06 0.08 0.11 0.11 0.10 0.06 0.04 0.01 0.02 0.09 0.12 0.08 0.06 0.04 0.02 0.02 0.02 0.02
0.01 0.01 0.01 0.01 0.04 0.07 0.10 0.10 0.06 0.06 0.05 0.06 0.08 0.11 0.13 0.15 0.12 0.11 0.11 0.09 0.06 0.09 0.17 0.17 0.13 0.15 0.17 0.17 0.14 0.14 0.11 0.09 0.05 0.04 0.14 0.25 0.16 0.08 0.04 0.03 0.02 0.03 0.02
0.02 0.02 0.02 0.03 0.06 0.10 0.11 0.12 0.10 0.06 0.05 0.03 0.05 0.07 0.12 0.16 0.20 0.23 0.22 0.23 0.16 0.12 0.14 0.19 0.21 0.27 0.24 0.21 0.14 0.15 0.14 0.17 0.18 0.15 0.17 0.31 0.28 0.13 0.06 0.03 0.03 0.04 0.04
0.03 0.04 0.04 0.05 0.06 0.09 0.10 0.09 0.07 0.04 0.04 0.04 0.05 0.06 0.11 0.16 0.24 0.29 0.30 0.31 0.26 0.21 0.21 0.19 0.22 0.30 0.28 0.24 0.21 0.21 0.23 0.23 0.25 0.23 0.22 0.30 0.29 0.20 0.12 0.06 0.04 0.04 0.04
0.04 0.05 0.06 0.05 0.05 0.07 0.08 0.09 0.08 0.07 0.07 0.07 0.06 0.08 0.13 0.20 0.22 0.24 0.24 0.25 0.28 0.29 0.31 0.29 0.25 0.27 0.29 0.31 0.28 0.24 0.27 0.25 0.21 0.18 0.15 0.13 0.13 0.12 0.16 0.10 0.05 0.03 0.03
0.03 0.03 0.04 0.05 0.06 0.06 0.07 0.09 0.09 0.10 0.10 0.11 0.10 0.11 0.12 0.13 0.19 0.24 0.25 0.25 0.29 0.32 0.32 0.31 0.34 0.34 0.32 0.33 0.30 0.23 0.18 0.18 0.15 0.11 0.09 0.07 0.05 0.06 0.07 0.07 0.04 0.04 0.03
0.02 0.03 0.03 0.03 0.04 0.04 0.06 0.07 0.08 0.08 0.09 0.10 0.11 0.11 0.09 0.11 0.15 0.24 0.28 0.31 0.35 0.37 0.35 0.32 0.35 0.34 0.30 0.31 0.26 0.20 0.16 0.10 0.07 0.06 0.04 0.03 0.03 0.04 0.07 0.06 0.07 0.03 0.01
0.01 0.02 0.02 0.02 0.02 0.03 0.03 0.04 0.04 0.05 0.05 0.06 0.07 0.07 0.06 0.07 0.09 0.15 0.20 0.24 0.27 0.30 0.32 0.33 0.33 0.33 0.31 0.29 0.30 0.23 0.18 0.14 0.08 0.04 0.02 0.02 0.02 0.02 0.03 0.04 0.04 0.02 0.02
0.01 0.01 0.01 0.01 0.01 0.01 0.01 0.01 0.02 0.02 0.02 0.03 0.03 0.03 0.04 0.04 0.05 0.10 0.15 0.18 0.22 0.25 0.27 0.32 0.35 0.35 0.31 0.29 0.30 0.27 0.23 0.19 0.13 0.05 0.03 0.02 0.02 0.02 0.01 0.01 0.00 0.01 0.02
0.00 0.00 0.00 0.00 0.00 0.00 0.00 0.01 0.01 0.01 0.01 0.01 0.01 0.02 0.02 0.02 0.02 0.04 0.07 0.12 0.18 0.22 0.25 0.28 0.31 0.31 0.29 0.27 0.26 0.22 0.18 0.14 0.10 0.07 0.05 0.02 0.01 0.01 0.00 0.00 0.00 0.00 0.01
0.00 0.00 0.00 0.00 0.00 0.00 0.00 0.01 0.01 0.00 0.00 0.00 0.00 0.01 0.01 0.01 0.00 0.01 0.03 0.06 0.11 0.16 0.19 0.18 0.18 0.23 0.26 0.27 0.27 0.20 0.13 0.12 0.12 0.09 0.06 0.02 0.00 0.00 0.00 0.00 0.00 0.00 0.01
0.00 0.00 0.00 0.00 0.01 0.01 0.01 0.01 0.02 0.01 0.01 0.00 0.00 0.00 0.00 0.00 0.01 0.00 0.01 0.02 0.05 0.10 0.15 0.19 0.21 0.21 0.21 0.22 0.24 0.22 0.16 0.11 0.08 0.08 0.09 0.05 0.02 0.00 0.00 0.00 0.00 0.01 0.01
0.00 0.00 0.00 0.00 0.01 0.02 0.02 0.02 0.02 0.02 0.02 0.01 0.00 0.00 0.00 0.00 0.00 0.00 0.01 0.01 0.02 0.04 0.07 0.13 0.18 0.21 0.22 0.22 0.19 0.22 0.23 0.16 0.08 0.05 0.04 0.04 0.04 0.01 0.00 0.00 0.01 0.01 0.02
MSLP
1007.08 1007.32 1007.70 1008.21 1008.78 1009.37 1009.89 1010.31 1010.62 1010.85 1011.04 1011.25 1011.53 1011.89 1012.32 1012.77 1013.20 1013.57 1013.84 1014.02 1014.14 1014.23 1014.32 1014.45 1014.62 1014.82 1015.02 1015.19 1015.32 1015.40 1015.44 1015.47 1015.51 1015.58 1015.70 1015.85 1016.02 1016.19 1016.36 1016.50 1016.63 1016.76 1016.92
1007.06 1007.36 1007.80 1008.36 1008.96 1009.55 1010.05 1010.44 1010.71 1010.91 1011.09 1011.31 1011.62 1012.02 1012.50 1012.99 1013.44 1013.82 1014.08 1014.24 1014.33 1014.39 1014.46 1014.57 1014.73 1014.92 1015.11 1015.28 1015.40 1015.47 1015.52 1015.55 1015.60 1015.70 1015.84 1016.02 1016.22 1016.41 1016.59 1016.75 1016.89 1017.03 1017.19
1006.94 1007.31 1007.81 1008.42 1009.07 1009.68 1010.19 1010.57 1010.84 1011.04 1011.22 1011.46 1011.79 1012.21 1012.68 1013.17 1013.60 1013.94 1014.17 1014.29 1014.35 1014.39 1014.46 1014.59 1014.76 1014.96 1015.17 1015.34 1015.46 1015.53 1015.57 1015.61 1015.67 1015.78 1015.95 1016.16 1016.39 1016.61 1016.81 1016.99 1017.14 1017.30 1017.47
1006.78 1007.20 1007.77 1008.44 1009.14 1009.79 1010.33 1010.73 1011.02 1011.23 1011.43 1011.69 1012.02 1012.43 1012.89 1013.33 1013.71 1013.99 1014.15 1014.23 1014.26 1014.31 1014.39 1014.55 1014.76 1015.00 1015.23 1015.42 1015.54 1015.61 1015.64 1015.67 1015.73 1015.86 1016.04 1016.28 1016.54 1016.79 1017.03 1017.23 1017.41 1017.58 1017.77
1006.61 1007.10 1007.74 1008.47 1009.22 1009.91 1010.48 1010.91 1011.22 1011.46 1011.68 1011.95 1012.28 1012.67 1013.09 1013.47 1013.78 1013.98 1014.09 1014.12 1014.14 1014.20 1014.32 1014.53 1014.80 1015.09 1015.35 1015.56 1015.68 1015.73 1015.74 1015.75 1015.80 1015.92 1016.12 1016.38 1016.66 1016.95 1017.21 1017.45 1017.66 1017.85 1018.06
1006.49 1007.04 1007.74 1008.53 1009.33 1010.05 1010.65 1011.10 1011.42 1011.68 1011.91 1012.19 1012.51 1012.88 1013.25 1013.58 1013.82 1013.96 1014.01 1014.02 1014.04 1014.12 1014.29 1014.56 1014.89 1015.23 1015.53 1015.75 1015.86 1015.89 1015.86 1015.84 1015.86 1015.96 1016.15 1016.42 1016.73 1017.05 1017.35 1017.62 1017.86 1018.08 1018.31
1006.41 1007.03 1007.79 1008.63 1009.46 1010.21 1010.81 1011.25 1011.58 1011.83 1012.07 1012.34 1012.66 1013.01 1013.35 1013.63 1013.82 1013.92 1013.94 1013.94 1013.97 1014.09 1014.31 1014.63 1015.02 1015.40 1015.73 1015.94 1016.04 1016.03 1015.96 1015.89 1015.87 1015.94 1016.11 1016.37 1016.70 1017.04 1017.38 1017.68 1017.96 1018.22 1018.48
1006.38 1007.05 1007.87 1008.75 1009.60 1010.34 1010.92 1011.35 1011.65 1011.88 1012.10 1012.36 1012.67 1013.01 1013.33 1013.60 1013.77 1013.85 1013.87 1013.87 1013.92 1014.07 1014.33 1014.70 1015.12 1015.53 1015.86 1016.07 1016.14 1016.09 1015.97 1015.84 1015.76 1015.80 1015.95 1016.20 1016.54 1016.90 1017.27 1017.62 1017.93 1018.22 1018.50
1006.37 1007.08 1007.94 1008.85 1009.70 1010.42 1010.97 1011.34 1011.60 1011.79 1012.00 1012.24 1012.55 1012.88 1013.20 1013.47 1013.64 1013.72 1013.75 1013.76 1013.83 1013.99 1014.28 1014.67 1015.10 1015.52 1015.85 1016.04 1016.08 1015.99 1015.82 1015.64 1015.53 1015.52 1015.65 1015.89 1016.23 1016.62 1017.01 1017.39 1017.75 1018.07 1018.38
1006.36 1007.11 1008.00 1008.91 1009.75 1010.43 1010.92 1011.24 1011.44 1011.60 1011.77 1012.00 1012.30 1012.64 1012.97 1013.25 1013.44 1013.53 1013.56 1013.58 1013.65 1013.82 1014.10 1014.47 1014.90 1015.31 1015.62 1015.79 1015.81 1015.70 1015.51 1015.30 1015.16 1015.12 1015.23 1015.46 1015.80 1016.21 1016.63 1017.05 1017.43 1017.79 1018.12
1006.37 1007.14 1008.03 1008.93 1009.74 1010.37 1010.80 1011.06 1011.21 1011.32 1011.46 1011.68 1011.98 1012.33 1012.68 1012.97 1013.17 1013.28 1013.31 1013.32 1013.37 1013.51 1013.75 1014.09 1014.49 1014.87 1015.17 1015.33 1015.35 1015.25 1015.05 1014.85 1014.69 1014.65 1014.74 1014.97 1015.31 1015.73 1016.17 1016.61 1017.02 1017.40 1017.76
1006.45 1007.21 1008.07 1008.94 1009.69 1010.26 1010.64 1010.85 1010.95 1011.03 1011.15 1011.36 1011.66 1012.02 1012.37 1012.68 1012.88 1012.99 1013.00 1012.98 1012.99 1013.08 1013.27 1013.55 1013.90 1014.25 1014.53 1014.71 1014.75 1014.68 1014.52 1014.34 1014.20 1014.17 1014.26 1014.48 1014.82 1015.23 1015.68 1016.14 1016.57 1016.97 1017.34
1006.66 1007.37 1008.17 1008.96 1009.65 1010.15 1010.48 1010.64 1010.72 1010.78 1010.89 1011.10 1011.40 1011.75 1012.11 1012.41 1012.61 1012.69 1012.68 1012.62 1012.57 1012.58 1012.70 1012.91 1013.21 1013.53 1013.81 1014.01 1014.10 1014.08 1013.98 1013.86 1013.76 1013.74 1013.83 1014.05 1014.37 1014.78 1015.23 1015.68 1016.12 1016.53 1016.91
1007.05 1007.66 1008.37 1009.06 1009.65 1010.09 1010.36 1010.50 1010.56 1010.62 1010.73 1010.94 1011.23 1011.58 1011.92 1012.20 1012.38 1012.44 1012.38 1012.27 1012.16 1012.10 1012.14 1012.28 1012.52 1012.81 1013.10 1013.33 1013.48 1013.54 1013.52 1013.45 1013.40 1013.40 1013.50 1013.70 1014.00 1014.38 1014.81 1015.25 1015.69 1016.11 1016.49
1007.63 1008.12 1008.69 1009.25 1009.74 1010.10 1010.33 1010.45 1010.51 1010.57 1010.69 1010.89 1011.17 1011.49 1011.80 1012.05 1012.20 1012.22 1012.13 1011.98 1011.81 1011.69 1011.66 1011.74 1011.93 1012.20 1012.49 1012.76 1012.97 1013.10 1013.15 1013.15 1013.14 1013.16 1013.24 1013.41 1013.67 1014.01 1014.41 1014.83 1015.26 1015.67 1016.05
1008.36 1008.70 1009.12 1009.54 1009.91 1010.20 1010.39 1010.50 1010.57 1010.64 1010.76 1010.94 1011.19 1011.47 1011.74 1011.95 1012.06 1012.05 1011.94 1011.76 1011.56 1011.40 1011.32 1011.36 1011.51 1011.75 1012.04 1012.34 1012.59 1012.77 1012.88 1012.93 1012.94 1012.95 1013.01 1013.13 1013.33 1013.62 1013.97 1014.37 1014.79 1015.19 1015.57
1009.17 1009.35 1009.60 1009.88 1010.15 1010.36 1010.52 1010.63 1010.71 1010.79 1010.89 1011.05 1011.25 1011.47 1011.68 1011.83 1011.91 1011.89 1011.77 1011.59 1011.39 1011.23 1011.13 1011.14 1011.27 1011.48 1011.76 1012.05 1012.32 1012.53 1012.66 1012.72 1012.72 1012.71 1012.72 1012.78 1012.92 1013.14 1013.44 1013.81 1014.21 1014.62 1015.01
1009.93 1009.97 1010.07 1010.22 1010.39 1010.56 1010.70 1010.81 1010.90 1010.97 1011.06 1011.17 1011.30 1011.44 1011.57 1011.68 1011.72 1011.69 1011.60 1011.45 1011.29 1011.15 1011.06 1011.07 1011.17 1011.35 1011.60 1011.87 1012.12 1012.31 1012.43 1012.47 1012.44 1012.38 1012.32 1012.30 1012.37 1012.52 1012.77 1013.11 1013.50 1013.91 1014.32
1010.53 1010.46 1010.46 1010.51 1010.62 1010.75 1010.89 1011.00 1011.10 1011.16 1011.22 1011.26 1011.30 1011.35 1011.40 1011.44 1011.46 1011.44 1011.39 1011.30 1011.20 1011.11 1011.06 1011.07 1011.16 1011.31 1011.51 1011.73 1011.93 1012.07 1012.15 1012.13 1012.05 1011.92 1011.79 1011.70 1011.68 1011.77 1011.97 1012.27 1012.65 1013.08 1013.52
1010.92 1010.78 1010.71 1010.71 1010.78 1010.91 1011.05 1011.19 1011.29 1011.34 1011.35 1011.31 1011.26 1011.21 1011.17 1011.14 1011.13 1011.13 1011.12 1011.11 1011.09 1011.07 1011.07 1011.10 1011.18 1011.29 1011.44 1011.59 1011.72 1011.80 1011.81 1011.73 1011.58 1011.38 1011.17 1011.00 1010.91 1010.93 1011.07 1011.35 1011.72 1012.16 1012.63
1011.06 1010.91 1010.81 1010.80 1010.88 1011.02 1011.19 1011.35 1011.46 1011.50 1011.45 1011.34 1011.19 1011.04 1010.90 1010.81 1010.77 1010.77 1010.81 1010.87 1010.93 1010.99 1011.05 1011.11 1011.18 1011.26 1011.36 1011.45 1011.51 1011.52 1011.46 1011.32 1011.10 1010.83 1010.56 1010.31 1010.14 1010.10 1010.19 1010.42 1010.78 1011.23 1011.72
1011.01 1010.88 1010.80 1010.81 1010.92 1011.09 1011.30 1011.49 1011.61 1011.63 1011.55 1011.37 1011.12 1010.87 1010.64 1010.48 1010.40 1010.41 1010.48 1010.60 1010.74 1010.86 1010.98 1011.07 1011.14 1011.21 1011.26 1011.30 1011.31 1011.26 1011.16 1010.97 1010.71 1010.39 1010.05 1009.74 1009.51 1009.39 1009.42 1009.60 1009.93 1010.36 1010.86
1010.84 1010.75 1010.72 1010.77 1010.92 1011.13 1011.38 1011.60 1011.74 1011.76 1011.64 1011.40 1011.09 1010.75 1010.44 1010.21 1010.09 1010.08 1010.17 1010.32 1010.51 1010.68 1010.84 1010.96 1011.05 1011.11 1011.15 1011.16 1011.15 1011.09 1010.97 1010.77 1010.49 1010.15 1009.77 1009.41 1009.11 1008.92 1008.88 1008.99 1009.26 1009.65 1010.13
1010.65 1010.62 1010.63 1010.72 1010.90 1011.15 1011.43 1011.67 1011.83 1011.85 1011.72 1011.45 1011.09 1010.69 1010.32 1010.03 1009.86 1009.82 1009.90 1010.06 1010.26 1010.46 1010.64 1010.79 1010.90 1010.97 1011.03 1011.06 1011.06 1011.02 1010.93 1010.75 1010.49 1010.15 1009.77 1009.37 1009.01 1008.75 1008.61 1008.64 1008.82 1009.14 1009.58
1010.52 1010.54 1010.58 1010.70 1010.89 1011.15 1011.44 1011.70 1011.87 1011.91 1011.78 1011.50 1011.12 1010.69 1010.28 1009.94 1009.72 1009.64 1009.68 1009.81 1010.00 1010.21 1010.40 1010.56 1010.69 1010.79 1010.88 1010.96 1011.02 1011.04 1011.01 1010.90 1010.69 1010.39 1010.01 1009.59 1009.19 1008.85 1008.62 1008.54 1008.63 1008.87 1009.23
1010.49 1010.54 1010.59 1010.70 1010.88 1011.12 1011.40 1011.66 1011.83 1011.88 1011.78 1011.52 1011.14 1010.70 1010.27 1009.90 1009.64 1009.50 1009.49 1009.58 1009.73 1009.91 1010.09 1010.26 1010.41 1010.55 1010.70 1010.84 1010.98 1011.09 1011.15 1011.13 1011.00 1010.75 1010.40 1009.99 1009.55 1009.15 1008.84 1008.66 1008.65 1008.79 1009.07
Thickness
5857 5851 5842 5838 5833 5829 5825 5821 5817 5813 5809 5805 5802 5799 5796 5793 5791 5788 5786 5784 5782 5780 5778 5776 5773 5771 5769 5767 5765 5764 5763 5762 5760 5759 5757 5755 5754 5753 5752 5751 5751 5750 5748
5858 5848 5840 5836 5831 5827 5823 5819 5815 5811 5807 5804 5800 5797 5794 5791 5789 5786 5784 5782 5780 5778 5776 5774 5772 5770 5768 5766 5764 5762 5761 5760 5759 5758 5756 5755 5753 5751 5751 5751 5751 5748 5747
5855 5845 5838 5834 5829 5825 5821 5817 5814 5810 5806 5802 5799 5795 5793 5790 5787 5785 5782 5780 5779 5777 5775 5773 5771 5769 5767 5765 5763 5761 5760 5759 5758 5757 5756 5756 5753 5750 5749 5749 5748 5747 5745
5853 5843 5837 5831 5827 5823 5819 5815 5811 5808 5804 5801 5797 5794 5791 5788 5785 5783 5781 5779 5777 5775 5773 5771 5770 5768 5766 5764 5762 5761 5759 5759 5757 5757 5757 5756 5754 5750 5748 5747 5746 5745 5744
5851 5842 5834 5829 5824 5820 5816 5813 5809 5806 5802 5799 5796 5792 5789 5787 5784 5781 5779 5777 5775 5773 5771 5770 5768 5766 5764 5763 5761 5760 5759 5758 5757 5757 5759 5757 5754 5749 5747 5745 5744 5743 5742
5848 5840 5831 5826 5821 5817 5813 5810 5807 5804 5801 5797 5794 5791 5788 5785 5783 5780 5777 5775 5773 5771 5769 5768 5766 5764 5762 5761 5760 5758 5758 5757 5757 5758 5759 5757 5753 5749 5747 5745 5743 5742 5741
5847 5837 5828 5823 5818 5815 5811 5807 5804 5802 5798 5795 5793 5790 5786 5784 5781 5778 5776 5774 5772 5769 5767 5765 5764 5762 5761 5759 5758 5757 5756 5756 5756 5760 5761 5758 5753 5749 5747 5744 5743 5741 5740
5846 5835 5825 5819 5815 5812 5808 5805 5802 5799 5796 5793 5790 5787 5784 5781 5779 5777 5774 5772 5769 5767 5766 5764 5762 5760 5758 5757 5756 5755 5754 5754 5757 5760 5761 5758 5754 5750 5747 5744 5742 5741 5739
5846 5833 5823 5817 5812 5808 5805 5802 5798 5795 5792 5789 5786 5784 5781 5778 5776 5773 5771 5769 5766 5765 5763 5761 5760 5758 5757 5755 5754 5753 5752 5752 5753 5757 5760 5758 5755 5752 5748 5745 5742 5741 5739
5843 5832 5824 5818 5812 5807 5802 5798 5795 5792 5788 5785 5782 5780 5777 5774 5772 5769 5768 5765 5763 5762 5760 5758 5757 5756 5755 5754 5752 5751 5750 5749 5751 5755 5760 5759 5756 5753 5750 5746 5743 5741 5739
5838 5832 5827 5820 5813 5808 5803 5798 5792 5789 5785 5782 5779 5776 5773 5771 5770 5767 5766 5764 5761 5759 5757 5756 5755 5754 5753 5752 5751 5750 5748 5748 5751 5754 5759 5760 5757 5754 5751 5747 5744 5741 5740
5828 5828 5826 5821 5813 5809 5806 5798 5792 5788 5785 5780 5779 5776 5771 5770 5769 5769 5768 5764 5760 5757 5755 5754 5752 5751 5750 5751 5751 5749 5748 5748 5750 5755 5759 5759 5757 5754 5751 5748 5745 5742 5740
5824 5823 5822 5817 5810 5806 5803 5797 5794 5791 5787 5780 5778 5776 5772 5770 5769 5769 5767 5764 5758 5754 5752 5751 5750 5749 5750 5751 5752 5751 5749 5750 5752 5755 5758 5758 5756 5754 5751 5749 5746 5743 5741
5817 5814 5814 5811 5805 5801 5797 5794 5791 5788 5784 5781 5777 5773 5770 5767 5765 5764 5763 5761 5756 5752 5749 5749 5749 5749 5750 5750 5750 5750 5749 5749 5752 5754 5753 5753 5753 5751 5749 5748 5746 5743 5741
5807 5805 5803 5802 5797 5792 5787 5783 5781 5779 5777 5775 5772 5769 5766 5762 5759 5758 5756 5754 5752 5750 5746 5746 5746 5747 5746 5746 5747 5747 5748 5748 5750 5750 5750 5748 5745 5747 5747 5746 5745 5743 5742
5796 5795 5794 5791 5787 5783 5778 5774 5772 5771 5769 5768 5765 5763 5759 5756 5753 5751 5748 5746 5745 5744 5742 5741 5741 5741 5740 5741 5742 5743 5744 5745 5746 5745 5744 5744 5744 5744 5745 5745 5744 5743 5742
5786 5785 5783 5782 5779 5774 5770 5767 5765 5764 5762 5760 5757 5754 5751 5748 5746 5744 5741 5739 5738 5737 5736 5736 5737 5735 5736 5736 5735 5737 5739 5741 5741 5741 5740 5741 5742 5743 5743 5744 5744 5744 5743
5777 5775 5773 5773 5770 5766 5763 5759 5757 5755 5753 5750 5748 5745 5741 5739 5738 5737 5735 5734 5733 5732 5731 5729 5729 5728 5728 5729 5729 5730 5734 5736 5738 5739 5740 5741 5742 5743 5743 5745 5745 5744 5744
5768 5766 5763 5761 5759 5757 5755 5752 5749 5747 5744 5742 5739 5736 5733 5730 5729 5728 5727 5727 5726 5726 5725 5724 5723 5722 5721 5722 5723 5725 5728 5731 5734 5737 5739 5741 5743 5744 5745 5746 5746 5746 5745
5760 5758 5755 5753 5750 5748 5746 5744 5740 5738 5736 5734 5731 5728 5725 5723 5721 5720 5720 5720 5720 5719 5719 5718 5717 5717 5718 5718 5718 5720 5724 5728 5731 5735 5738 5741 5742 5745 5747 5748 5746 5745 5745
5752 5749 5746 5743 5740 5738 5734 5730 5727 5725 5725 5724 5723 5721 5719 5716 5714 5713 5712 5712 5713 5712 5713 5713 5713 5711 5712 5713 5710 5712 5718 5725 5729 5733 5737 5740 5743 5746 5747 5749 5747 5747 5747
5743 5740 5738 5735 5731 5728 5724 5721 5719 5717 5716 5716 5715 5713 5711 5709 5707 5707 5705 5704 5705 5705 5706 5707 5707 5704 5706 5709 5705 5703 5705 5713 5723 5733 5736 5738 5741 5745 5747 5749 5750 5749 5749
5736 5733 5732 5726 5722 5718 5714 5712 5709 5707 5706 5705 5703 5702 5702 5701 5700 5698 5696 5696 5696 5696 5697 5699 5699 5698 5698 5703 5704 5700 5698 5702 5714 5725 5731 5736 5738 5740 5745 5749 5750 5750 5749
5732 5730 5725 5720 5715 5710 5704 5699 5694 5690 5689 5690 5691 5692 5691 5691 5691 5690 5688 5687 5687 5688 5688 5690 5692 5692 5692 5693 5696 5699 5701 5704 5704 5708 5720 5730 5734 5736 5740 5744 5747 5748 5748
5727 5723 5718 5713 5707 5701 5694 5688 5684 5680 5679 5678 5678 5678 5679 5680 5681 5681 5680 5679 5678 5678 5678 5680 5682 5683 5684 5686 5687 5690 5694 5698 5703 5702 5703 5714 5723 5730 5735 5738 5742 5744 5745
5721 5716 5709 5702 5696 5691 5685 5679 5674 5670 5667 5665 5664 5664 5667 5670 5672 5673 5672 5670 5669 5668 5668 5669 5671 5674 5676 5679 5681 5683 5684 5687 5693 5697 5699 5704 5710 5720 5729 5733 5736 5738 5740